This demonstration page uses our WeatherBlox Daily Observations layout. Learn more.

Left ArrowRight Arrow

Hourly Observations for July 11, 2016

Temp ( °F °C ) Dew Point ( °F °C ) Humidity (%) Winds ( mph kmh ) Pressure ( in mb ) Visibility ( mi km ) Precip ( " mm )
12:53 am 00:53 Clear 77 25 66 18.9 69 69 WSW 6 9 30.04 1017 10 16 0.00 0.00
1:53 am 01:53 Clear 76 24.4 67 19.4 74 74 WSW 5 7 30.03 1017 10 16 0.00 0.00
2:53 am 02:53 Mostly Clear 74 23.3 67 19.4 79 79 Calm 30.02 1017 10 16 0.00 0.00
3:53 am 03:53 Clear 74 23.3 67 19.4 79 79 Calm 30.01 1016 10 16 0.00 0.00
4:53 am 04:53 Clear 73 22.8 68 20 84 84 WSW 3 6 30.02 1017 10 16 0.00 0.00
5:53 am 05:53 Clear 73 22.8 68 20 84 84 Calm 30.03 1017 10 16 0.00 0.00
6:53 am 06:53 Sunny 73 22.8 68 20 84 84 VRB 3 6 30.05 1018 10 16 0.00 0.00
7:53 am 07:53 Sunny 74 23.3 69 20.6 85 85 SW 3 6 30.07 1018 10 16 0.00 0.00
8:53 am 08:53 Sunny 76 24.4 68 20 77 77 WSW 5 7 30.08 1019 10 16 0.00 0.00
9:53 am 09:53 Sunny 79 26.1 69 20.6 72 72 SW 3 6 30.09 1019 10 16 0.00 0.00
10:53 am 10:53 Sunny 80 26.7 69 20.6 69 69 SE 3 6 30.10 1019 10 16 0.00 0.00
11:53 am 11:53 Sunny 83 28.3 69 20.6 63 63 SSW 6 9 30.10 1019 10 16 0.00 0.00
12:53 pm 12:53 Mostly Cloudy 85 29.4 69 20.6 59 59 VRB 5 7 30.09 1019 10 16 0.00 0.00
1:53 pm 13:53 Partly Cloudy 87 30.6 68 20 53 53 SW 8 13 30.07 1018 10 16 0.00 0.00
2:53 pm 14:53 Partly Cloudy 89 31.7 67 19.4 48 48 VRB 5 7 30.05 1018 10 16 0.00 0.00
3:53 pm 15:53 Mostly Cloudy 90 32.2 68 20 48 48 SSE 8 13 30.02 1017 10 16 0.00 0.00
4:53 pm 16:53 Mostly Sunny 90 32.2 67 19.4 47 47 SW 9 15 30.01 1016 10 16 0.00 0.00
5:31 pm 17:31 Partly Cloudy with Thunderstorms 89 31.7 66 18.9 47 47 S 10 17 29.97 1015 10 16 0.00 0.00
5:53 pm 17:53 Partly Cloudy with Nearby Thunderstorms 88 31.1 67 19.4 50 50 W 10 17 30.01 1016 10 16 0.00 0.00
6:08 pm 18:08 Mostly Cloudy with Strong Thunderstorms 79 26 70 21 74 74 SW 18 30 30.03 1017 2 3 0.00 0.00
6:15 pm 18:15 Cloudy with Strong Thunderstorms 75 23.9 68 20 79 79 SW 7 11 30.03 1017 1 2 0.16 4.06
6:21 pm 18:21 Mostly Cloudy with Thunderstorms 75 23.9 68 20 79 79 WSW 7 11 30.03 1017 4 6 0.16 4.06
6:43 pm 18:43 Partly Cloudy 77 25 70 21.1 79 79 SW 9 15 30.06 1018 10 16 0.16 4.06
6:53 pm 18:53 Partly Cloudy with Nearby Thunderstorms 77 25 68 20 74 74 SSW 12 19 30.06 1018 10 16 0.16 4.06
7:24 pm 19:24 Sunny 75 24 68 20 78 78 SW 6 9 30.06 1018 10 16 0.00 0.00
7:53 pm 19:53 Mostly Sunny 76 24.4 68 20 77 77 S 3 6 30.06 1018 10 16 0.00 0.00
8:53 pm 20:53 Clear 75 23.9 68 20 79 79 Calm 30.05 1018 10 16 0.00 0.00
9:53 pm 21:53 Clear 74 23.3 69 20.6 85 85 S 6 9 30.07 1018 10 16 0.00 0.00
10:53 pm 22:53 Clear 74 23.3 69 20.6 85 85 S 3 6 30.09 1019 10 16 0.00 0.00
11:53 pm 23:53 Clear 73 22.8 68 20 84 84 S 6 9 30.08 1019 10 16 0.00 0.00

Powered by AerisWeather